Weather Roundup
Issued by NWS Chicago, IL

Home | Current Version | Previous Version | Text Only | Print | Product List | Glossary On
Versions: 1 2 3 4 5 6 7 8 9 10 11 12 13 14 15 16 17 18 19 20 21 22 23 24 25 26 27 28 29 30 31 32 33 34 35 36 37 38 39 40 41 42 43 44 45 46 47 48 49 50
000
NZUS59 KLOT 202110
HRRLOT

CHICAGO AREA WEATHER ROUNDUP
NATIONAL WEATHER SERVICE CHICAGO/ROMEOVILLE IL
400 PM CDT SUN JUN 20 2021

NOTE: "FAIR" INDICATES FEW OR NO CLOUDS BELOW 12,000 FEET WITH NO
SIGNIFICANT WEATHER AND/OR OBSTRUCTIONS TO VISIBILITY.

* THESE STATIONS ARE NOT UNDER NWS QUALITY CONTROL. THEY ALSO MAY NOT
  REPORT WEATHER SUCH AS PRECIPITATION OR FOG.

ILZ005-006-012>014-019>023-202200-
NORTHEAST ILLINOIS

CITY           SKY/WX    TMP DP  RH WIND       PRES   REMARKS
OHARE          CLOUDY    82  69  64 S7        29.63F HX  85
MIDWAY         CLOUDY    84  68  58 SW6       29.63F HX  87
AURORA         CLOUDY    79  70  74 W8        29.65F HX  82
LANSING*       CLOUDY    83  71  65 SW5       29.65F HX  88
JOLIET*        CLOUDY    83  72  68 SW6       29.65S HX  88
WAUKEGAN       CLOUDY    73  68  84 NE6       29.65F
DUPAGE AIRPORT CLOUDY    80  69  69 SW6       29.64F HX  83
WHEELING       CLOUDY    82  67  60 S3        29.65F HX  84
KANKAKEE*      CLOUDY    85  70  61 W8        29.67S HX  89
MORRIS*        CLOUDY    81  71  72 SW7       29.65S HX  84
LEWIS AIRPORT* CLOUDY    82  71  70 NW10      29.65S HX  86
NORTHERLY ISL*   N/A     72  67  84 NE5         N/A
$$

WIZ051-052-058>065-066-070>072-202200-
SOUTHEAST WISCONSIN

CITY           SKY/WX    TMP DP  RH WIND       PRES   REMARKS
MILWAUKEE      LGT RAIN  73  64  73 S5        29.68F
KENOSHA*       CLOUDY    75  65  70 NE8       29.66F
RACINE*        CLOUDY    72  66  81 SE5       29.70F
BURLINGTON       N/A     74  68  81 NE5       29.66F
WAUKESHA       CLOUDY    66  63  88 W7        29.70F
WEST BEND      RAIN      64  63  94 CALM      29.69F
$$

INZ001>003-010>013-019-020-202200-
NORTHWEST INDIANA

CITY           SKY/WX    TMP DP  RH WIND       PRES   REMARKS
GARY*          SUNNY     82  73  74 NE5       29.65F HX  88
MICHIGAN CITY* NOT AVBL
RENSSELAER*    NOT AVBL
VALPARAISO     PTSUNNY   85  71  63 SE5       29.66F HX  90
$$

LMZ740>746-202200-
SOUTHERN LAKE MICHIGAN

STATION/POSITION TIME  SKY/WX   TEMP WIND        PRES    VSBY
                                AIR  DIR/SP/G
                 (UTC)          (F)  (DEG/KT/KT) (MB)    (MI)
HARRISON CRIB    2040            70   70/  4/  4   N/A
NORTHERLY ISL    2100            72   30/  3/  4   N/A
CALUMET HARBOR   2030                 60/  4/  5 1004.0F
BURNS HARBOR     2030            73   70/  4/  5 1004.7F
MICHIGAN CITY    2040            71   60/  8/  8 1004.0R
$$

ABBREVIATIONS USED IN REMARKS
   TC - TEMPERATURE IN CELSIUS
  WCI - WIND CHILL INDEX
   HX - HEAT INDEX
  VSB - VISIBILITY
$$



USA.gov is the U.S. government's official web portal to all federal, state and local government web resources and services.